Tracking 18852 objects as of 24-Nov-2017
HD Live streaming from Space Station
objects crossing your sky now

FLOCK 2EP 4


FLOCK 2EP 4 is no longer on orbit
FLOCK 2EP 4 is classified as:


NORAD ID: 41482
Int'l Code: 1998-067JC
Perigee: N/A
Apogee: N/A
Inclination: N/A
Period: N/A
Semi major axis: N/A
RCS: N/A
Launch date: November 20, 1998
Source: United States (US)
Launch site: TYURATAM MISSILE AND SPACE COMPLEX (TTMTR)
Decay date: 2017-11-08
aabbcc
Your satellite tracking list
Your tracking list is empty




NASA's NSSDC Master Catalog

Two Line Element Set (TLE):
1 41482U 98067JC  17312.53569587  .12083578  12294-4  16127-2 0  9996
2 41482  51.6040 345.8546 0002992  29.1792 330.9399 16.34655709 84693
Source of the keplerian elements: AFSPC